Location: Newark
(51.3318°N, 0.0053°E)
Time: 01:17:08
(UTC+00:00)

Envisat - Pass Details

Date: 28 January 2022
Orbit: 764 x 765 km, 98.2° (Epoch: 28 May)

Event Time Altitude Azimuth Distance (km) Brightness Sun altitude
Rises 04:42:55 0° 17° (NNE) 3,243 6.5 -28.1°
Reaches altitude 10° 04:45:16 10° 21° (NNE) 2,313 5.8 -27.7°
Maximum altitude 04:50:18 58° 101° (E) 894 3.5 -26.9°
Drops below altitude 10° 04:55:17 10° 180° (S) 2,297 5.4 -26.2°
Sets 04:57:37 0° 184° (S) 3,218 6.2 -25.8°
